CW8081 Thessaloniki GR current weather conditions

sailwx.info

Wind from 211 at 5 knots gusting 6

Air temperature 17.8° C
Dewpoint 11.1° C

Last reported at 2015-Apr-01 09:41 UTC.
Time now 2015-Apr-01 10:43 UTC

Location: N 40°34' E 022°58'.
View on Google Maps.

See reports from other nearby stations

  
Tides and Currents Weather Stations Pressure Air Temp Water Temp Dewpoint Dewpoint Depression Visibility Wind Speed Wind Dir Waves Ship Positions
date/time (UTC)wind fromknots sea level pressurealtimeterstation pressurevisibilityair tempwater tempwave heightnotes
2015-Apr-01 09:41 211 5 gusting 6 17.8
2015-Apr-01 09:31 264 3 gusting 6 16.7
2015-Apr-01 09:11 195 6 gusting 8 16.7
2015-Apr-01 09:01 194 5 gusting 6 16.7
2015-Apr-01 08:41 223 4 gusting 5 15.0
2015-Apr-01 08:31 252 5 gusting 7 14.4
2015-Apr-01 08:11 223 5 gusting 7 14.4
2015-Apr-01 08:01 221 4 gusting 8 14.4
2015-Apr-01 07:41 242 2 gusting 6 13.9
2015-Apr-01 07:31 239 2 gusting 6 13.9
2015-Apr-01 07:11 224 3 gusting 6 13.9
2015-Apr-01 07:01 282 13.3
2015-Apr-01 06:41 030 12.2
2015-Apr-01 06:31 030 11.7
2015-Apr-01 06:11 033 10.6
2015-Apr-01 06:01 033 10.6
2015-Apr-01 05:41 022 9.4
2015-Apr-01 05:31 022 9.4
2015-Apr-01 05:11 022 8.9
2015-Apr-01 05:01 022 8.9
2015-Apr-01 04:41 021 8.9
2015-Apr-01 04:31 021 8.9
2015-Apr-01 04:11 030 8.9
2015-Apr-01 04:01 030 8.9
2015-Apr-01 03:41 030 8.9
2015-Apr-01 03:31 030 8.9
2015-Apr-01 03:11 030 9.4
2015-Apr-01 03:01 030 9.4
2015-Apr-01 02:41 030 9.4
2015-Apr-01 02:31 030 1 gusting 4 9.4
2015-Apr-01 02:11 028 10.0
2015-Apr-01 02:01 028 10.0
2015-Apr-01 01:41 028 10.0
2015-Apr-01 01:31 028 10.0
2015-Apr-01 01:11 028 10.6
2015-Apr-01 01:01 028 10.6
2015-Apr-01 00:41 028 11.1
2015-Apr-01 00:31 028 11.1
2015-Apr-01 00:11 028 11.1
2015-Apr-01 00:01 028 11.1
2015-Mar-31 23:41 028 11.7
2015-Mar-31 23:31 028 11.7
2015-Mar-31 23:11 030 2 gusting 4 11.1
2015-Mar-31 23:01 138 11.7
2015-Mar-31 22:41 138 12.2
2015-Mar-31 22:31 138 12.2
2015-Mar-31 22:11 142 12.8
2015-Mar-31 22:01 138 0 gusting 6 13.3
2015-Mar-31 21:41 139 2 gusting 6 13.3
2015-Mar-31 21:31 134 0 gusting 5 12.8
2015-Mar-31 21:11 132 12.8
2015-Mar-31 21:01 138 12.2
2015-Mar-31 20:41 146 1 gusting 6 12.8
2015-Mar-31 20:31 147 2 gusting 6 12.8
2015-Mar-31 20:11 120 12.8
2015-Mar-31 20:01 120 12.8
2015-Mar-31 19:41 076 13.3
2015-Mar-31 19:31 119 13.3
2015-Mar-31 19:11 153 2 gusting 6 13.9
2015-Mar-31 19:01 146 0 gusting 4 13.9
2015-Mar-31 18:41 082 14.4
2015-Mar-31 18:31 082 14.4
2015-Mar-31 18:11 082 15.0
2015-Mar-31 18:01 082 15.0
2015-Mar-31 17:41 132 15.0
2015-Mar-31 17:31 136 15.6
2015-Mar-31 17:11 089 16.1
2015-Mar-31 17:01 251 16.1
2015-Mar-31 16:41 219 5 gusting 10 17.2
2015-Mar-31 16:31 207 1 gusting 7 18.3
2015-Mar-31 16:11 261 20.0
2015-Mar-31 16:01 348 20.0
2015-Mar-31 15:41 298 1 gusting 8 20.6
2015-Mar-31 15:31 038 3 gusting 6 20.6
2015-Mar-31 15:11 221 21.1
2015-Mar-31 15:01 217 20.6
2015-Mar-31 14:41 209 20.6
2015-Mar-31 14:31 221 4 gusting 10 20.6
2015-Mar-31 14:11 235 3 gusting 7 21.1
2015-Mar-31 14:01 253 1 gusting 7 21.7
2015-Mar-31 13:41 284 5 gusting 7 21.1
2015-Mar-31 13:31 329 2 gusting 11 21.1
2015-Mar-31 13:11 010 1 gusting 8 20.6
2015-Mar-31 13:01 312 1 gusting 10 20.6
2015-Mar-31 12:41 302 6 gusting 10 20.6
2015-Mar-31 12:31 301 4 gusting 12 20.0
2015-Mar-31 12:11 295 7 gusting 13 19.4
2015-Mar-31 12:01 349 2 gusting 15 19.4
2015-Mar-31 11:41 306 8 gusting 12 19.4
2015-Mar-31 11:31 260 5 gusting 8 19.4
2015-Mar-31 11:11 288 5 gusting 8 18.9
2015-Mar-31 11:01 314 5 gusting 12 18.9
2015-Mar-31 10:41 294 7 gusting 13 18.3
2015-Mar-31 10:31 287 6 gusting 13 18.3
2015-Mar-31 10:11 313 4 gusting 11 17.8
2015-Mar-31 10:01 333 7 gusting 15 17.2
2015-Mar-31 09:41 284 6 gusting 13 17.2
2015-Mar-31 09:31 011 10 gusting 15 16.7
2015-Mar-31 09:11 279 6 gusting 11 16.7
2015-Mar-31 09:01 005 6 gusting 15 16.1
2015-Mar-31 08:41 008 8 gusting 15 15.6
2015-Mar-31 08:31 330 6 gusting 18 15.6
2015-Mar-31 08:11 005 6 gusting 17 15.0
2015-Mar-31 08:01 005 8 gusting 17 15.0
2015-Mar-31 07:41 267 6 gusting 20 14.4
2015-Mar-31 07:31 355 11 gusting 21 13.9
2015-Mar-31 07:11 346 10 gusting 18 13.9
2015-Mar-31 07:01 323 10 gusting 19 13.3
2015-Mar-31 06:41 348 11 gusting 19 12.8
2015-Mar-31 06:31 355 8 gusting 18 12.8
2015-Mar-31 06:11 331 11 gusting 18 12.2
2015-Mar-31 06:01 331 8 gusting 17 12.8
2015-Mar-31 05:41 338 8 gusting 17 12.8
2015-Mar-31 05:31 005 8 gusting 20 12.2
2015-Mar-31 05:11 355 5 gusting 12 12.2
2015-Mar-31 05:01 11.7
2015-Mar-31 04:41 308 6 gusting 13 11.1
2015-Mar-31 04:31 344 5 gusting 10 11.1
2015-Mar-31 04:11 319 2 gusting 6 11.1
2015-Mar-31 04:01 336 0 gusting 6 11.1
2015-Mar-31 03:41 055 10.6
2015-Mar-31 03:31 055 10.6
2015-Mar-31 03:11 055 10.6
2015-Mar-31 03:01 055 10.6
2015-Mar-31 02:41 055 10.6
2015-Mar-31 02:31 055 10.6
2015-Mar-31 02:11 055 10.6
2015-Mar-31 02:01 055 10.6
2015-Mar-31 01:41 055 10.6
2015-Mar-31 01:31 055 10.6
2015-Mar-31 01:11 055 11.1
2015-Mar-31 01:01 055 11.1
2015-Mar-31 00:41 055 11.1
2015-Mar-31 00:31 055 11.1
2015-Mar-31 00:11 055 11.1
2015-Mar-31 00:01 055 11.1
2015-Mar-30 23:41 055 11.1
2015-Mar-30 23:31 055 11.1
2015-Mar-30 23:01 055 11.1
2015-Mar-30 22:41 055 11.1
2015-Mar-30 22:31 055 11.1
2015-Mar-30 22:11 055 11.7
2015-Mar-30 22:01 055 11.7
2015-Mar-30 21:41 055 11.7
2015-Mar-30 21:31 055 11.7
2015-Mar-30 21:11 055 0 gusting 5 11.7
2015-Mar-30 21:01 259 11.7
2015-Mar-30 20:41 259 11.7
2015-Mar-30 20:31 259 11.7
2015-Mar-30 20:11 259 11.7
2015-Mar-30 20:01 259 12.2
2015-Mar-30 19:41 259 12.2
2015-Mar-30 19:31 259 12.2
2015-Mar-30 19:11 259 12.2
2015-Mar-30 19:01 259 12.2
2015-Mar-30 18:41 259 12.2
2015-Mar-30 18:31 259 0 gusting 5 12.2
2015-Mar-30 18:11 245 2 gusting 5 12.8
2015-Mar-30 18:01 243 12.8
2015-Mar-30 17:11 243 13.3
2015-Mar-30 17:01 243 2 gusting 2 13.3
2015-Mar-30 16:41 243 1 gusting 4 13.9
2015-Mar-30 16:31 243 1 gusting 6 13.9
2015-Mar-30 16:11 243 1 gusting 7 14.4
2015-Mar-30 16:01 275 3 gusting 7 15.0
2015-Mar-30 15:41 272 0 gusting 6 15.6
2015-Mar-30 15:31 266 2 gusting 6 16.1
2015-Mar-30 15:11 180 16.1
2015-Mar-30 15:01 180 0 gusting 5 16.1
2015-Mar-30 14:41 180 16.1
2015-Mar-30 14:31 175 0 gusting 8 16.7
2015-Mar-30 14:11 168 4 gusting 7 17.2
2015-Mar-30 14:01 202 5 gusting 8 17.2
2015-Mar-30 13:41 199 4 gusting 10 17.8
2015-Mar-30 13:31 197 5 gusting 12 17.8
2015-Mar-30 13:11 241 4 gusting 6 17.2
2015-Mar-30 13:01 269 4 gusting 6 17.8
2015-Mar-30 12:41 215 18.3
2015-Mar-30 12:31 199 18.3
2015-Mar-30 12:11 236 18.3
2015-Mar-30 12:01 218 18.3
2015-Mar-30 11:41 192 17.8
2015-Mar-30 11:31 251 3 gusting 6 17.8
2015-Mar-30 11:11 225 2 gusting 6 17.2
2015-Mar-30 11:01 258 5 gusting 6 17.8
2015-Mar-30 10:41 242 17.2
2015-Mar-30 10:31 217 4 gusting 6 17.2